Weather in Murray Bridge

Australia     35°07′07″S   139°16′33″E
temp.,
°C
wind,
m/s
gust,
m/s
humid.,
%
clouds,
%
prec.,
mm/h
press.,
hPa
HPBL,
m
29 june, wed
wed2900:30+7nnw33520 0.0 102441
03:30+7nnw3451100 0.0 102355
06:30+8nnw3645100 0.0 1022100
09:30+11nw41145100 0.0 1022404
12:30+14wnw694581 0.0 1020886
15:30+12wnw486899 0.0 1019483
18:30+8nw358969 0.0 1020101
21:30+8nw248816 0.0 102098
30 june, thu
thu3000:30+7nw3493100 0.0 102076
03:30+7nw35927 0.0 1019101
06:30+7nnw119458 0.2 102013
09:30+10s348415 0.2 1023304
12:30+13sse456436 0.0 10231091
15:30+12ssw677044 0.2 1023866
18:30+10s4881100 0.2 1026404
21:30+9sse488574 0.2 1028419
1 july, fri
fri100:30+5ssw35978 0.0 1028128
03:30+4sw23951 0.0 102937
06:30+4sw22931 0.0 103025
09:30+9ssw357530 0.0 1031300
12:30+12s466449 0.0 1030659
15:30+12s575770 0.0 10291189
18:30+7ssw36884 0.0 1031108
21:30+6s228750 0.0 103222
2 july, sat
sat200:30+6s247849 0.0 1031104
03:30+6s127949 0.0 103151
06:30+6ssw1276100 0.0 103260
09:30+8s257094 0.0 1032309
12:30+11sse466393 0.1 1031809
15:30+11s576272 0.1 10301218
18:30+7ssw358695 0.1 1031102
21:30+8sse277498 0.1 1031295
3 july, sun
sun300:30+7sse2770100 0.0 1031238
03:30+7s236684 0.0 103092
06:30+7sse266692 0.0 1030208
09:30+9sse395962 0.0 1031511
12:30+12sse785238 0.0 10291448
15:30+13sse71054100 0.0 10281576
18:30+11s510675 0.0 1029601
21:30+8s411925 0.1 1029278